Location: Hilton Head Island
(32.2163°N, 80.7526°W)
Time: 03:57:50
(UTC-04:00)

Transit 2A Rocket - Pass Details

Date: 08 February 2026
Orbit: 583 x 900 km, 66.7° (Epoch: 8 March)

Event Time Altitude Azimuth Distance (km) Brightness Sun altitude
Rises 04:59:28 0° 321° (NW) 3,303 - -28.4°
Reaches altitude 10° 05:02:16 10° 311° (NW) 2,314 - -27.8°
Maximum altitude 05:06:41 28° 254° (WSW) 1,351 - -26.9°
Drops below altitude 10° 05:10:47 10° 196° (SSW) 2,123 - -26.0°
Exits shadow 05:12:29 - 187° (S) 2,703 7.8 -25.6°
Sets 05:13:15 0° 184° (S) 2,982 8.1 -25.5°
